Location: Unspecified
(0.0000°N, 0.0000°E)
Time: 22:54:49
(UTC+00:00)

Vanguard 1 - Pass Details

Date: 05 October 2020
Orbit: 649 x 3833 km, 34.3° (Epoch: 28 October)

Event Time Altitude Azimuth Distance (km) Brightness Sun altitude
Rises 15:17:29 0° 234° (SW) 7,972 15.4 37.5°
Reaches altitude 10° 15:23:03 10° 234° (SW) 6,918 15.3 36.1°
Maximum altitude 15:45:52 86° 321° (NW) 2,974 13.1 30.5°
Drops below altitude 10° 15:59:26 10° 50° (NE) 4,434 13.0 27.1°
Sets 16:02:09 0° 51° (NE) 5,107 13.3 26.4°
